Location: Orlando
(28.5380°N, 81.3790°W)
Time: 13:27:05
(UTC-04:00)

N. Korean satellite - Visible Passes

Search period start: 19 March 2019 00:00
Search period end: 29 March 2019 00:00
Orbit: 455 x 511 km, 97.2° (Epoch: 18 March)

Date Brightness Start Highest point End Pass type
(mag) Time Alt. Az. Time Alt. Az. Time Alt. Az.
19 Mar 9.8 06:43:55 10° NE 06:46:21 17° E 06:48:47 10° SE visible
22 Mar 8.7 07:02:07 10° NNE 07:05:21 33° E 07:08:39 10° SSE visible
23 Mar 9.9 06:38:24 10° ENE 06:40:29 15° E 06:42:35 10° SE visible
26 Mar 9.1 06:56:22 10° NE 06:59:29 27° E 07:02:38 10° SSE visible
27 Mar 10.1 06:32:59 10° ENE 06:34:35 12° E 06:36:12 10° ESE visible
